Volver al catálogo

STARLINK-4524

ActivoComunicacionesVLEO
NORAD 53396·PAYLOAD·🇺🇸 United States

Lanzado Aug 10, 2022 desde Cape Canaveral Space Force Station

Loading…

Próximos Pases (próximas 24 horas)

TLE

ActualizadoSource: CelesTrak SupGP

Época: Sep 15, 2026, 01:58 UTC

1 53396C 22097J   26258.08243056  .00034945  00000+0  99985-3 0  2582
2 53396  53.1592 347.7953 0001597  90.0165 290.1576 15.35379059    12

Sigue STARLINK-4524 en tiempo real con AllMySat

Download on the App Store